| time (UTC) | temp C | wind direction | speed KPH | gust KPH | rain 1hr cm | rain 24hr cm | rain mn cm | humidity % | barometer mb |
| 20260505114542 | 12 | 211 | 0.0 | 4.8 | 0.00 | 0.00 | 0.00 | 84 | 1015.2 |
| 20260505113056 | 12 | 211 | 0.0 | 8.0 | 0.00 | 0.00 | 0.00 | 84 | 1015.1 |
| 20260505111545 | 12 | 0 | 0.0 | 3.2 | 0.00 | 0.00 | 0.00 | 84 | 1015.2 |
| 20260505101548 | 13 | 215 | 0.0 | 9.7 | 0.00 | 0.00 | 0.00 | 82 | 1014.6 |
| 20260505100050 | 13 | 214 | 1.6 | 8.0 | 0.00 | 0.00 | 0.00 | 82 | 1014.6 |
| 20260505094544 | 13 | 0 | 0.0 | 6.4 | 0.00 | 0.00 | 0.00 | 81 | 1014.5 |
| 20260505093048 | 13 | 218 | 4.8 | 9.7 | 0.00 | 0.00 | 0.00 | 81 | 1014.5 |
| 20260505091559 | 13 | 235 | 4.8 | 12.9 | 0.00 | 0.00 | 0.00 | 80 | 1014.4 |
| 20260505090049 | 13 | 217 | 1.6 | 11.3 | 0.00 | 0.00 | 0.00 | 79 | 1014.3 |
| 20260505084549 | 14 | 218 | 1.6 | 11.3 | 0.00 | 0.00 | 0.00 | 79 | 1014.1 |
| 20260505083046 | 14 | 223 | 4.8 | 14.5 | 0.00 | 0.00 | 0.00 | 79 | 1014.2 |
| 20260505081555 | 14 | 192 | 8.0 | 16.1 | 0.00 | 0.00 | 0.00 | 78 | 1014.0 |
| 20260505080046 | 14 | 216 | 9.7 | 17.7 | 0.00 | 0.00 | 0.00 | 78 | 1014.0 |
| 20260505074542 | 15 | 221 | 4.8 | 11.3 | 0.00 | 0.00 | 0.00 | 77 | 1014.0 |
| 20260505073049 | 15 | 271 | 1.6 | 4.8 | 0.00 | 0.00 | 0.00 | 76 | 1013.6 |
| 20260505071554 | 15 | 0 | 0.0 | 6.4 | 0.00 | 0.00 | 0.00 | 76 | 1013.4 |
| 20260505070050 | 16 | 198 | 3.2 | 14.5 | 0.00 | 0.00 | 0.00 | 74 | 1013.3 |
| 20260505064545 | 16 | 0 | 3.2 | 11.3 | 0.00 | 0.00 | 0.00 | 73 | 1013.1 |
| 20260505063058 | 17 | 216 | 8.0 | 14.5 | 0.00 | 0.00 | 0.00 | 72 | 1012.9 |
| 20260505061610 | 17 | 296 | 0.0 | 4.8 | 0.00 | 0.00 | 0.00 | 71 | 1012.7 |
| 20260505060039 | 18 | 0 | 0.0 | 4.8 | 0.00 | 0.00 | 0.00 | 70 | 1012.5 |
| 20260505054548 | 18 | 296 | 1.6 | 8.0 | 0.00 | 0.00 | 0.00 | 70 | 1012.4 |
| 20260505053046 | 18 | 279 | 8.0 | 19.3 | 0.00 | 0.00 | 0.00 | 70 | 1012.4 |
| 20260505051606 | 18 | 263 | 6.4 | 12.9 | 0.00 | 0.00 | 0.00 | 75 | 1012.2 |
| 20260505041551 | 18 | 0 | 0.0 | 1.6 | 0.00 | 0.00 | 0.00 | 75 | 1011.4 |
| 20260505040045 | 19 | 0 | 0.0 | 3.2 | 0.00 | 0.00 | 0.00 | 75 | 1011.1 |
| 20260505034547 | 19 | 0 | 0.0 | 1.6 | 0.00 | 0.00 | 0.00 | 72 | 1010.9 |
| 20260505033044 | 20 | 0 | 0.0 | 0.0 | 0.00 | 0.00 | 0.00 | 71 | 1010.8 |
| 20260505031552 | 20 | 0 | 0.0 | 4.8 | 0.00 | 0.00 | 0.00 | 70 | 1010.7 |
| 20260505030044 | 20 | 0 | 0.0 | 9.7 | 0.00 | 0.00 | 0.00 | 68 | 1010.4 |
| 20260505024548 | 21 | 0 | 3.2 | 16.1 | 0.00 | 0.00 | 0.00 | 66 | 1010.2 |
| 20260505023048 | 21 | 209 | 0.0 | 12.9 | 0.00 | 0.00 | 0.00 | 65 | 1010.3 |
| 20260505021551 | 22 | 0 | 4.8 | 12.9 | 0.00 | 0.00 | 0.00 | 62 | 1010.2 |
| 20260505020043 | 23 | 222 | 4.8 | 12.9 | 0.00 | 0.00 | 0.00 | 59 | 1010.2 |
| 20260505014543 | 23 | 215 | 8.0 | 14.5 | 0.00 | 0.00 | 0.00 | 57 | 1010.1 |
| 20260505013042 | 23 | 249 | 8.0 | 16.1 | 0.00 | 0.00 | 0.00 | 56 | 1010.4 |
| 20260505011551 | 24 | 242 | 4.8 | 14.5 | 0.00 | 0.00 | 0.00 | 56 | 1010.6 |
| 20260505010057 | 23 | 239 | 4.8 | 16.1 | 0.00 | 0.00 | 0.00 | 55 | 1010.6 |
| 20260505004544 | 23 | 227 | 3.2 | 11.3 | 0.00 | 0.00 | 0.00 | 57 | 1010.7 |
| 20260505003043 | 23 | 217 | 4.8 | 14.5 | 0.00 | 0.00 | 0.00 | 54 | 1010.8 |
| 20260505001544 | 24 | 262 | 6.4 | 14.5 | 0.00 | 0.00 | 0.00 | 55 | 1010.8 |
| 20260505000046 | 23 | 216 | 4.8 | 16.1 | 0.00 | 0.00 | 0.00 | 54 | 1010.9 |
| 20260504234548 | 23 | 276 | 6.4 | 14.5 | 0.00 | 0.00 | 0.00 | 55 | 1010.9 |
| 20260504233104 | 23 | 234 | 9.7 | 16.1 | 0.00 | 0.00 | 0.00 | 55 | 1011.0 |
| 20260504231546 | 23 | 205 | 3.2 | 14.5 | 0.00 | 0.00 | 0.00 | 57 | 1011.1 |
| 20260504230053 | 23 | 286 | 4.8 | 16.1 | 0.00 | 0.00 | 0.00 | 53 | 1011.2 |
| 20260504224542 | 22 | 280 | 6.4 | 14.5 | 0.00 | 0.00 | 0.00 | 57 | 1011.3 |
| 20260504223047 | 22 | 236 | 9.7 | 16.1 | 0.00 | 0.00 | 0.00 | 58 | 1011.5 |
| 20260504221544 | 21 | 119 | 3.2 | 12.9 | 0.00 | 0.00 | 0.00 | 62 | 1011.6 |
| 20260504220045 | 22 | 196 | 1.6 | 12.9 | 0.00 | 0.00 | 0.00 | 60 | 1011.8 |
| 20260504214548 | 21 | 0 | 1.6 | 11.3 | 0.00 | 0.00 | 0.00 | 61 | 1011.9 |
| 20260504213041 | 22 | 0 | 1.6 | 8.0 | 0.00 | 0.00 | 0.00 | 60 | 1012.1 |
| 20260504211540 | 22 | 279 | 6.4 | 16.1 | 0.00 | 0.00 | 0.00 | 59 | 1012.3 |
| 20260504210104 | 21 | 223 | 3.2 | 14.5 | 0.00 | 0.00 | 0.00 | 59 | 1012.5 |
| 20260504204548 | 20 | 0 | 8.0 | 16.1 | 0.00 | 0.00 | 0.00 | 63 | 1012.7 |
| 20260504203058 | 20 | 205 | 11.3 | 20.9 | 0.00 | 0.00 | 0.00 | 63 | 1012.8 |
| 20260504201541 | 20 | 0 | 1.6 | 14.5 | 0.00 | 0.00 | 0.00 | 64 | 1013.1 |
| 20260504200041 | 19 | 249 | 3.2 | 14.5 | 0.00 | 0.00 | 0.00 | 68 | 1013.3 |
| 20260504194545 | 18 | 228 | 6.4 | 17.7 | 0.00 | 0.00 | 0.00 | 67 | 1013.4 |
| 20260504193049 | 18 | 207 | 3.2 | 11.3 | 0.00 | 0.00 | 0.00 | 71 | 1013.4 |
| 20260504191543 | 17 | 247 | 4.8 | 12.9 | 0.00 | 0.00 | 0.00 | 70 | 1013.6 |
| 20260504190105 | 17 | 252 | 6.4 | 14.5 | 0.00 | 0.00 | 0.00 | 72 | 1013.7 |
| 20260504184548 | 17 | 213 | 3.2 | 16.1 | 0.00 | 0.00 | 0.00 | 73 | 1013.9 |
| 20260504183045 | 16 | 283 | 8.0 | 17.7 | 0.00 | 0.00 | 0.00 | 73 | 1013.8 |
| 20260504181544 | 16 | 220 | 8.0 | 14.5 | 0.00 | 0.00 | 0.00 | 74 | 1013.8 |
| 20260504180044 | 16 | 285 | 4.8 | 14.5 | 0.00 | 0.00 | 0.00 | 75 | 1013.8 |
| 20260504174544 | 15 | 275 | 3.2 | 8.0 | 0.00 | 0.00 | 0.00 | 76 | 1013.8 |
| 20260504173044 | 15 | 200 | 8.0 | 14.5 | 0.00 | 0.00 | 0.00 | 76 | 1013.8 |
| 20260504171543 | 15 | 229 | 4.8 | 11.3 | 0.00 | 0.00 | 0.00 | 79 | 1013.8 |